YMA7562 MMVA-MHLM

Flight info

Callsign YMA7562
Flight time 1h 3m
Altitude 31000
Route MMVA OLORI PESGA MHLM
Aircraft B738/M-VGDW/C

Departure

Time 2026-04-21 09:13
Airport Carlos Rovirosa Pérez International Airport (MMVA)

Arrival

Time 2026-04-21 10:17
Airport Ramón Villeda Morales International Airport (MHLM)
Time Latitude Longitude Altitude Speed Heading
2026-04-21 09:00 17.99358 -92.82017 47 ft 0 kts 177°
2026-04-21 09:08 17.99376 -92.82016 47 ft 13 kts 191°
2026-04-21 09:08 17.99408 -92.81988 47 ft 0 kts 256°
2026-04-21 09:08 17.99412 -92.81995 47 ft 2 kts 326°
2026-04-21 09:08 17.99462 -92.82005 47 ft 14 kts 337°
2026-04-21 09:09 17.99546 -92.82130 45 ft 12 kts 297°
2026-04-21 09:09 17.99555 -92.82149 44 ft 0 kts 297°
2026-04-21 09:10 17.99556 -92.82151 44 ft 2 kts 297°
2026-04-21 09:10 17.99593 -92.82232 43 ft 23 kts 295°
2026-04-21 09:10 17.99648 -92.82423 39 ft 27 kts 268°
2026-04-21 09:10 17.99636 -92.82589 38 ft 19 kts 261°
2026-04-21 09:11 17.99579 -92.82692 37 ft 15 kts 242°
2026-04-21 09:11 17.99622 -92.82752 36 ft 11 kts 42°
2026-04-21 09:11 17.99632 -92.82707 37 ft 0 kts 87°
2026-04-21 09:13 17.99637 -92.82614 38 ft 44 kts 85°
2026-04-21 09:13 17.99673 -92.81974 47 ft 125 kts 86°
2026-04-21 09:13 17.99716 -92.80879 329 ft 161 kts 88°
2026-04-21 09:13 17.99706 -92.79809 1239 ft 150 kts 86°
2026-04-21 09:14 17.99703 -92.78552 1546 ft 190 kts 87°
2026-04-21 09:14 17.99703 -92.77088 1978 ft 206 kts 87°
2026-04-21 09:14 17.99722 -92.75593 2343 ft 202 kts 85°
2026-04-21 09:14 17.99812 -92.74154 2705 ft 200 kts 84°
2026-04-21 09:15 17.99917 -92.72698 3081 ft 201 kts 84°
2026-04-21 09:15 18.00025 -92.71225 3461 ft 202 kts 84°
2026-04-21 09:15 18.00134 -92.69757 3834 ft 203 kts 84°
2026-04-21 09:15 18.00253 -92.68269 4210 ft 204 kts 84°
2026-04-21 09:16 18.00376 -92.66795 4580 ft 206 kts 84°
2026-04-21 09:16 18.00463 -92.65279 4901 ft 209 kts 90°
2026-04-21 09:16 18.00324 -92.63742 5350 ft 211 kts 107°
2026-04-21 09:16 17.99829 -92.62309 5832 ft 213 kts 109°
2026-04-21 09:17 17.99298 -92.60856 6291 ft 214 kts 110°
2026-04-21 09:17 17.98770 -92.59396 6745 ft 216 kts 110°
2026-04-21 09:17 17.98235 -92.57914 7209 ft 217 kts 110°
2026-04-21 09:17 17.97702 -92.56434 7664 ft 219 kts 110°
2026-04-21 09:18 17.97261 -92.54874 8122 ft 221 kts 96°
2026-04-21 09:18 17.97097 -92.53285 8582 ft 222 kts 94°
2026-04-21 09:18 17.96985 -92.51663 9043 ft 229 kts 94°
2026-04-21 09:18 17.96869 -92.49918 9568 ft 250 kts 94°
2026-04-21 09:19 17.96741 -92.48019 10085 ft 272 kts 94°
2026-04-21 09:19 17.96597 -92.45974 10575 ft 293 kts 93°
2026-04-21 09:19 17.96436 -92.43819 11023 ft 298 kts 94°
2026-04-21 09:19 17.96271 -92.41673 11445 ft 298 kts 94°
2026-04-21 09:20 17.96099 -92.39487 11879 ft 299 kts 94°
2026-04-21 09:20 17.95922 -92.37304 12311 ft 302 kts 94°
2026-04-21 09:20 17.95733 -92.35080 12761 ft 319 kts 93°
2026-04-21 09:20 17.95521 -92.32683 13222 ft 335 kts 94°
2026-04-21 09:21 17.95295 -92.30211 13686 ft 351 kts 94°
2026-04-21 09:21 17.95064 -92.27619 14163 ft 366 kts 94°
2026-04-21 09:21 17.94690 -92.24952 14607 ft 372 kts 105°
2026-04-21 09:21 17.93925 -92.22352 15067 ft 372 kts 105°
2026-04-21 09:22 17.92885 -92.19879 15499 ft 374 kts 117°
2026-04-21 09:22 17.91657 -92.17467 15936 ft 377 kts 116°
2026-04-21 09:22 17.90452 -92.15015 16385 ft 379 kts 116°
2026-04-21 09:22 17.89254 -92.12570 16817 ft 381 kts 116°
2026-04-21 09:23 17.88023 -92.10067 17258 ft 383 kts 116°
2026-04-21 09:23 17.86807 -92.07589 17708 ft 385 kts 116°
2026-04-21 09:23 17.85590 -92.05096 18128 ft 388 kts 115°
2026-04-21 09:23 17.84353 -92.02555 18568 ft 392 kts 115°
2026-04-21 09:24 17.83118 -91.99999 19005 ft 396 kts 115°
2026-04-21 09:24 17.81879 -91.97434 19426 ft 399 kts 116°
2026-04-21 09:24 17.80613 -91.94800 19869 ft 403 kts 115°
2026-04-21 09:24 17.79351 -91.92163 20310 ft 408 kts 115°
2026-04-21 09:25 17.78083 -91.89496 20733 ft 412 kts 115°
2026-04-21 09:25 17.76812 -91.86805 21163 ft 416 kts 115°
2026-04-21 09:25 17.75524 -91.84062 21599 ft 419 kts 115°
2026-04-21 09:25 17.74249 -91.81325 22031 ft 422 kts 115°
2026-04-21 09:26 17.72964 -91.78542 22466 ft 426 kts 115°
2026-04-21 09:26 17.71681 -91.75741 22913 ft 429 kts 115°
2026-04-21 09:26 17.70390 -91.72899 23363 ft 432 kts 115°
2026-04-21 09:26 17.69110 -91.70051 23809 ft 435 kts 115°
2026-04-21 09:27 17.67834 -91.67187 24264 ft 437 kts 115°
2026-04-21 09:27 17.66569 -91.64316 24719 ft 439 kts 115°
2026-04-21 09:27 17.65273 -91.61370 25187 ft 442 kts 116°
2026-04-21 09:27 17.63936 -91.58494 25645 ft 445 kts 117°
2026-04-21 09:28 17.62561 -91.55561 26110 ft 447 kts 117°
2026-04-21 09:28 17.61219 -91.52669 26573 ft 448 kts 117°
2026-04-21 09:28 17.59870 -91.49734 27048 ft 449 kts 117°
2026-04-21 09:28 17.58512 -91.46742 27529 ft 450 kts 117°
2026-04-21 09:29 17.57195 -91.43824 27998 ft 450 kts 117°
2026-04-21 09:29 17.55867 -91.40844 28472 ft 450 kts 117°
2026-04-21 09:29 17.54550 -91.37859 28945 ft 450 kts 117°
2026-04-21 09:29 17.53242 -91.34894 29418 ft 449 kts 117°
2026-04-21 09:30 17.51904 -91.31960 29881 ft 447 kts 119°
2026-04-21 09:30 17.50500 -91.29044 30350 ft 446 kts 120°
2026-04-21 09:30 17.49052 -91.26218 30815 ft 443 kts 121°
2026-04-21 09:30 17.47574 -91.23375 31284 ft 441 kts 121°
2026-04-21 09:31 17.46116 -91.20567 31749 ft 438 kts 121°
2026-04-21 09:31 17.44675 -91.17776 32212 ft 435 kts 121°
2026-04-21 09:31 17.43247 -91.14992 32676 ft 432 kts 121°
2026-04-21 09:31 17.41857 -91.12277 33161 ft 428 kts 121°
2026-04-21 09:32 17.40450 -91.09532 33684 ft 423 kts 121°
2026-04-21 09:32 17.39075 -91.06850 34195 ft 419 kts 121°
2026-04-21 09:32 17.37716 -91.04191 34711 ft 414 kts 121°
2026-04-21 09:32 17.36364 -91.01550 35234 ft 408 kts 121°
2026-04-21 09:33 17.35032 -90.98953 35758 ft 402 kts 121°
2026-04-21 09:33 17.33722 -90.96397 36273 ft 395 kts 121°
2026-04-21 09:33 17.32455 -90.93920 36781 ft 387 kts 121°
2026-04-21 09:33 17.31189 -90.91448 37294 ft 379 kts 121°
2026-04-21 09:34 17.29968 -90.89088 37794 ft 369 kts 121°
2026-04-21 09:34 17.28758 -90.86751 38296 ft 359 kts 121°
2026-04-21 09:34 17.27594 -90.84499 38782 ft 347 kts 121°
2026-04-21 09:34 17.26486 -90.82333 39275 ft 333 kts 121°
2026-04-21 09:35 17.25409 -90.80229 39585 ft 323 kts 126°
2026-04-21 09:35 17.24011 -90.78337 38899 ft 334 kts 140°
2026-04-21 09:35 17.22287 -90.76617 38255 ft 349 kts 143°
2026-04-21 09:35 17.20383 -90.74919 37246 ft 379 kts 144°
2026-04-21 09:36 17.18213 -90.73076 36067 ft 410 kts 144°
2026-04-21 09:36 17.16043 -90.71131 36419 ft 405 kts 137°
2026-04-21 09:36 17.14108 -90.68977 35992 ft 422 kts 131°
2026-04-21 09:36 17.12540 -90.66321 35640 ft 437 kts 112°
2026-04-21 09:37 17.11377 -90.63324 35487 ft 440 kts 118°
2026-04-21 09:37 17.09929 -90.60461 35303 ft 446 kts 119°
2026-04-21 09:37 17.08606 -90.57606 36021 ft 433 kts 118°
2026-04-21 09:37 17.07350 -90.54847 36705 ft 409 kts 118°
2026-04-21 09:38 17.06130 -90.52151 35467 ft 421 kts 117°
2026-04-21 09:38 17.04865 -90.49361 34014 ft 431 kts 118°
2026-04-21 09:38 17.03600 -90.46558 33810 ft 414 kts 117°
2026-04-21 09:38 17.02395 -90.43880 33315 ft 408 kts 117°
2026-04-21 09:39 17.01167 -90.41151 32281 ft 414 kts 117°
2026-04-21 09:39 16.99951 -90.38457 31892 ft 403 kts 117°
2026-04-21 09:39 16.98783 -90.35868 31466 ft 396 kts 117°
2026-04-21 09:39 16.97605 -90.33257 30783 ft 398 kts 118°
2026-04-21 09:40 16.95235 -90.28011 30726 ft 399 kts 117°
2026-04-21 09:40 16.92966 -90.22772 30730 ft 394 kts 117°
2026-04-21 09:41 16.90703 -90.17548 30740 ft 396 kts 117°
2026-04-21 09:41 16.88448 -90.12315 30743 ft 396 kts 116°
2026-04-21 09:42 16.86197 -90.07066 30741 ft 396 kts 116°
2026-04-21 09:42 16.83946 -90.01836 30743 ft 396 kts 116°
2026-04-21 09:43 16.81676 -89.96598 30744 ft 395 kts 116°
2026-04-21 09:43 16.79332 -89.91398 30743 ft 395 kts 117°
2026-04-21 09:44 16.76984 -89.86222 30741 ft 395 kts 117°
2026-04-21 09:44 16.74639 -89.81051 30742 ft 395 kts 117°
2026-04-21 09:45 16.72305 -89.75899 30743 ft 395 kts 117°
2026-04-21 09:45 16.69955 -89.70695 30746 ft 395 kts 117°
2026-04-21 09:46 16.67622 -89.65509 30748 ft 395 kts 117°
2026-04-21 09:46 16.65282 -89.60330 30754 ft 395 kts 117°
2026-04-21 09:47 16.62425 -89.55519 30803 ft 391 kts 134°
2026-04-21 09:47 16.58740 -89.51378 30757 ft 391 kts 135°
2026-04-21 09:48 16.55036 -89.47256 30760 ft 389 kts 135°
2026-04-21 09:48 16.51323 -89.43130 30763 ft 390 kts 135°
2026-04-21 09:49 16.47597 -89.38985 30766 ft 390 kts 135°
2026-04-21 09:49 16.43887 -89.34860 30772 ft 390 kts 135°
2026-04-21 09:50 16.40179 -89.30737 30767 ft 390 kts 135°
2026-04-21 09:50 16.36473 -89.26628 30767 ft 390 kts 135°
2026-04-21 09:51 16.34889 -89.24327 30777 ft 393 kts 116°
2026-04-21 09:51 16.33774 -89.21727 30789 ft 395 kts 118°
2026-04-21 09:51 16.32643 -89.19104 30754 ft 397 kts 107°
2026-04-21 09:51 16.32116 -89.16295 30788 ft 397 kts 101°
2026-04-21 09:52 16.31132 -89.10671 30711 ft 389 kts 102°
2026-04-21 09:52 16.30634 -89.07861 29266 ft 412 kts 102°
2026-04-21 09:52 16.30087 -89.04868 25987 ft 469 kts 102°
2026-04-21 09:53 16.29460 -89.01592 25562 ft 447 kts 102°
2026-04-21 09:53 16.28880 -88.98515 25669 ft 420 kts 102°
2026-04-21 09:53 16.28326 -88.95576 24960 ft 417 kts 102°
2026-04-21 09:53 16.27753 -88.92587 23882 ft 421 kts 102°
2026-04-21 09:54 16.27175 -88.89625 23476 ft 408 kts 102°
2026-04-21 09:54 16.26625 -88.86787 22804 ft 404 kts 102°
2026-04-21 09:54 16.26053 -88.83928 21972 ft 404 kts 102°
2026-04-21 09:54 16.25463 -88.81071 21432 ft 396 kts 102°
2026-04-21 09:55 16.24883 -88.78314 20729 ft 394 kts 102°
2026-04-21 09:55 16.24314 -88.75511 20011 ft 392 kts 100°
2026-04-21 09:55 16.23834 -88.72779 19449 ft 385 kts 99°
2026-04-21 09:55 16.23379 -88.70036 18766 ft 383 kts 99°
2026-04-21 09:56 16.22918 -88.67315 18128 ft 380 kts 98°
2026-04-21 09:56 16.22460 -88.64638 17555 ft 374 kts 98°
2026-04-21 09:56 16.21999 -88.61977 16950 ft 371 kts 99°
2026-04-21 09:56 16.21562 -88.59373 16349 ft 367 kts 98°
2026-04-21 09:57 16.21126 -88.56755 15814 ft 362 kts 99°
2026-04-21 09:57 16.20715 -88.54219 15211 ft 359 kts 98°
2026-04-21 09:57 16.20310 -88.51653 14621 ft 355 kts 98°
2026-04-21 09:57 16.19926 -88.49168 14288 ft 344 kts 98°
2026-04-21 09:58 16.19555 -88.46730 13732 ft 342 kts 98°
2026-04-21 09:58 16.19189 -88.44260 13098 ft 340 kts 98°
2026-04-21 09:58 16.18844 -88.41928 13027 ft 321 kts 98°
2026-04-21 09:58 16.18501 -88.39627 12368 ft 325 kts 98°
2026-04-21 09:59 16.18146 -88.37296 11735 ft 325 kts 98°
2026-04-21 09:59 16.17791 -88.35016 11594 ft 307 kts 98°
2026-04-21 09:59 16.17456 -88.32877 11201 ft 302 kts 99°
2026-04-21 09:59 16.17111 -88.30704 10749 ft 299 kts 99°
2026-04-21 10:00 16.16774 -88.28597 10473 ft 291 kts 99°
2026-04-21 10:00 16.16443 -88.26536 10068 ft 288 kts 99°
2026-04-21 10:00 16.16108 -88.24506 9772 ft 281 kts 99°
2026-04-21 10:00 16.15750 -88.22541 9434 ft 278 kts 99°
2026-04-21 10:01 16.15379 -88.20547 8950 ft 279 kts 99°
2026-04-21 10:01 16.15010 -88.18594 8603 ft 275 kts 99°
2026-04-21 10:01 16.14634 -88.16640 8231 ft 273 kts 99°
2026-04-21 10:01 16.14256 -88.14693 7777 ft 274 kts 99°
2026-04-21 10:02 16.13496 -88.10861 7055 ft 269 kts 99°
2026-04-21 10:02 16.13108 -88.08946 6654 ft 268 kts 99°
2026-04-21 10:02 16.12646 -88.07058 6262 ft 269 kts 112°
2026-04-21 10:03 16.11604 -88.05444 5860 ft 272 kts 124°
2026-04-21 10:03 16.10451 -88.03874 5518 ft 269 kts 124°
2026-04-21 10:03 16.09239 -88.02402 5117 ft 272 kts 140°
2026-04-21 10:03 16.07526 -88.01514 4720 ft 274 kts 157°
2026-04-21 10:04 16.05788 -88.00836 4673 ft 256 kts 158°
2026-04-21 10:04 16.04178 -88.00214 4645 ft 234 kts 157°
2026-04-21 10:04 16.02638 -87.99628 4042 ft 243 kts 158°
2026-04-21 10:04 16.01039 -87.99010 3982 ft 241 kts 158°
2026-04-21 10:05 15.99497 -87.98420 3971 ft 228 kts 158°
2026-04-21 10:05 15.98027 -87.97786 3962 ft 228 kts 153°
2026-04-21 10:05 15.96605 -87.97067 3980 ft 228 kts 152°
2026-04-21 10:05 15.95189 -87.96285 3969 ft 228 kts 149°
2026-04-21 10:06 15.93801 -87.95515 3970 ft 228 kts 149°
2026-04-21 10:06 15.92395 -87.94729 3978 ft 229 kts 149°
2026-04-21 10:06 15.90972 -87.93936 3979 ft 230 kts 149°
2026-04-21 10:06 15.89558 -87.93147 3980 ft 230 kts 149°
2026-04-21 10:07 15.88146 -87.92358 3986 ft 230 kts 149°
2026-04-21 10:07 15.86738 -87.91551 3984 ft 230 kts 148°
2026-04-21 10:07 15.85369 -87.90718 3983 ft 229 kts 147°
2026-04-21 10:07 15.83980 -87.89877 3983 ft 228 kts 147°
2026-04-21 10:08 15.82598 -87.89042 3982 ft 229 kts 147°
2026-04-21 10:08 15.81237 -87.88223 3977 ft 228 kts 148°
2026-04-21 10:08 15.79859 -87.87389 3981 ft 228 kts 147°
2026-04-21 10:08 15.78470 -87.86551 4003 ft 228 kts 147°
2026-04-21 10:09 15.77107 -87.85726 3988 ft 229 kts 147°
2026-04-21 10:09 15.75743 -87.84833 3969 ft 228 kts 136°
2026-04-21 10:09 15.74719 -87.83603 4006 ft 226 kts 128°
2026-04-21 10:09 15.73709 -87.82344 3991 ft 226 kts 127°
2026-04-21 10:10 15.72707 -87.81094 3989 ft 226 kts 127°
2026-04-21 10:10 15.71702 -87.79827 3988 ft 226 kts 127°
2026-04-21 10:10 15.70695 -87.78565 3985 ft 226 kts 127°
2026-04-21 10:10 15.69686 -87.77302 3984 ft 226 kts 128°
2026-04-21 10:11 15.68699 -87.76066 3972 ft 216 kts 127°
2026-04-21 10:11 15.67773 -87.74945 3978 ft 190 kts 134°
2026-04-21 10:11 15.66580 -87.74449 3978 ft 189 kts 179°
2026-04-21 10:11 15.65313 -87.74895 4012 ft 198 kts 217°
2026-04-21 10:12 15.64078 -87.75549 3997 ft 198 kts 202°
2026-04-21 10:12 15.63036 -87.76453 4012 ft 196 kts 230°
2026-04-21 10:12 15.62089 -87.77490 3995 ft 198 kts 226°
2026-04-21 10:12 15.61091 -87.78484 3774 ft 200 kts 224°
2026-04-21 10:13 15.60070 -87.79439 3529 ft 195 kts 222°
2026-04-21 10:13 15.59048 -87.80362 3290 ft 193 kts 221°
2026-04-21 10:13 15.58032 -87.81262 3051 ft 191 kts 221°
2026-04-21 10:13 15.57049 -87.82124 2777 ft 177 kts 221°
2026-04-21 10:14 15.56121 -87.82935 2555 ft 174 kts 221°
2026-04-21 10:14 15.55186 -87.83749 2343 ft 176 kts 220°
2026-04-21 10:14 15.54247 -87.84566 2122 ft 175 kts 220°
2026-04-21 10:14 15.53319 -87.85371 1897 ft 173 kts 220°
2026-04-21 10:15 15.52399 -87.86169 1674 ft 172 kts 220°
2026-04-21 10:15 15.51474 -87.86972 1449 ft 171 kts 220°
2026-04-21 10:15 15.50558 -87.87768 1223 ft 170 kts 220°
2026-04-21 10:15 15.49651 -87.88555 1000 ft 169 kts 220°
2026-04-21 10:16 15.48751 -87.89336 781 ft 167 kts 220°
2026-04-21 10:16 15.47862 -87.90108 556 ft 162 kts 220°
2026-04-21 10:16 15.47031 -87.90829 345 ft 154 kts 220°
2026-04-21 10:16 15.46174 -87.91568 150 ft 163 kts 220°
2026-04-21 10:17 15.45327 -87.92300 108 ft 146 kts 220°
2026-04-21 10:17 15.44732 -87.92824 110 ft 76 kts 221°
2026-04-21 10:17 15.44549 -87.92983 110 ft 11 kts 220°
2026-04-21 10:17 15.44528 -87.93053 111 ft 9 kts 289°
2026-04-21 10:18 15.44554 -87.93110 111 ft 7 kts 271°
2026-04-21 10:18 15.44533 -87.93150 112 ft 7 kts 229°
2026-04-21 10:18 15.44430 -87.93244 113 ft 30 kts 220°
2026-04-21 10:18 15.44315 -87.93345 114 ft 5 kts 209°
2026-04-21 10:19 15.44268 -87.93381 115 ft 12 kts 257°
2026-04-21 10:19 15.44269 -87.93421 116 ft 6 kts 279°
2026-04-21 10:19 15.44290 -87.93501 116 ft 9 kts 241°
2026-04-21 10:19 15.44243 -87.93488 116 ft 17 kts 109°
2026-04-21 10:20 15.44288 -87.93375 115 ft 23 kts 51°
2026-04-21 10:20 15.44441 -87.93236 113 ft 30 kts 39°
2026-04-21 10:20 15.44601 -87.93096 110 ft 29 kts 40°
2026-04-21 10:20 15.44757 -87.92960 108 ft 28 kts 40°
2026-04-21 10:21 15.44906 -87.92830 109 ft 27 kts 39°
2026-04-21 10:21 15.45047 -87.92706 109 ft 25 kts 39°
2026-04-21 10:21 15.45163 -87.92604 108 ft 13 kts 40°
2026-04-21 10:21 15.45231 -87.92545 109 ft 12 kts 40°
2026-04-21 10:22 15.45309 -87.92550 107 ft 13 kts 313°
2026-04-21 10:22 15.45372 -87.92627 107 ft 14 kts 319°
2026-04-21 10:22 15.45466 -87.92646 107 ft 9 kts 311°
2026-04-21 10:22 15.45497 -87.92686 107 ft 7 kts 309°
2026-04-21 10:23 15.45516 -87.92708 107 ft 1 kts 310°
2026-04-21 10:23 15.45521 -87.92715 107 ft 0 kts 309°